LNI797 WAJJ-WAAA

Flight info

Callsign LNI797
Flight time 2h 58m
Altitude 32000
Route KUBIA T6 LEKEX
Aircraft B739/M-SDE2E3FGHIRWXY/LB1

Departure

Time 2026-05-05 21:52
Airport Dortheys Hiyo Eluay International Airport (WAJJ)

Arrival

Time 2026-05-06 00:51
Airport Sultan Hasanuddin International Airport (WAAA)
Time Latitude Longitude Altitude Speed Heading
2026-05-05 21:24 -2.57146 140.51307 297 ft 0 kts 37°
2026-05-05 21:40 -2.57148 140.51306 299 ft 3 kts 37°
2026-05-05 21:40 -2.57170 140.51291 298 ft 4 kts 29°
2026-05-05 21:40 -2.57195 140.51280 297 ft 4 kts 15°
2026-05-05 21:41 -2.57219 140.51278 298 ft 4 kts 338°
2026-05-05 21:41 -2.57230 140.51284 299 ft 1 kts 306°
2026-05-05 21:46 -2.57227 140.51280 298 ft 2 kts 306°
2026-05-05 21:47 -2.57213 140.51262 301 ft 5 kts 306°
2026-05-05 21:47 -2.57188 140.51228 297 ft 7 kts 306°
2026-05-05 21:47 -2.57153 140.51181 299 ft 10 kts 306°
2026-05-05 21:47 -2.57112 140.51125 298 ft 7 kts 307°
2026-05-05 21:48 -2.57107 140.51083 300 ft 7 kts 248°
2026-05-05 21:48 -2.57130 140.51053 299 ft 4 kts 228°
2026-05-05 21:48 -2.57153 140.51027 299 ft 6 kts 228°
2026-05-05 21:48 -2.57186 140.50980 301 ft 8 kts 259°
2026-05-05 21:49 -2.57164 140.50929 302 ft 0 kts 298°
2026-05-05 21:49 -2.57163 140.50923 302 ft 2 kts 280°
2026-05-05 21:49 -2.57163 140.50902 303 ft 4 kts 272°
2026-05-05 21:49 -2.57152 140.50871 300 ft 5 kts 308°
2026-05-05 21:50 -2.57127 140.50870 299 ft 4 kts 20°
2026-05-05 21:50 -2.57125 140.50887 300 ft 3 kts 133°
2026-05-05 21:50 -2.57145 140.50905 303 ft 5 kts 133°
2026-05-05 21:50 -2.57151 140.50914 300 ft 2 kts 126°
2026-05-05 21:51 -2.57166 140.50933 302 ft 6 kts 127°
2026-05-05 21:51 -2.57277 140.51082 299 ft 60 kts 127°
2026-05-05 21:51 -2.57662 140.51598 302 ft 125 kts 127°
2026-05-05 21:51 -2.58294 140.52445 302 ft 175 kts 127°
2026-05-05 21:52 -2.59851 140.54531 1384 ft 191 kts 128°
2026-05-05 21:52 -2.60665 140.55595 1967 ft 200 kts 128°
2026-05-05 21:52 -2.61560 140.56770 2136 ft 223 kts 127°
2026-05-05 21:53 -2.62534 140.58053 2405 ft 238 kts 127°
2026-05-05 21:53 -2.63581 140.59438 2645 ft 260 kts 127°
2026-05-05 21:53 -2.64862 140.60693 3243 ft 263 kts 151°
2026-05-05 21:53 -2.66617 140.61186 3899 ft 266 kts 180°
2026-05-05 21:54 -2.68408 140.60748 4529 ft 270 kts 210°
2026-05-05 21:54 -2.69780 140.59467 5145 ft 275 kts 239°
2026-05-05 21:54 -2.70345 140.57649 5778 ft 278 kts 269°
2026-05-05 21:54 -2.69898 140.55773 6395 ft 281 kts 297°
2026-05-05 21:55 -2.68950 140.54052 6995 ft 284 kts 299°
2026-05-05 21:55 -2.67920 140.52350 7577 ft 288 kts 309°
2026-05-05 21:55 -2.66314 140.51178 8117 ft 290 kts 343°
2026-05-05 21:55 -2.64316 140.50989 8736 ft 290 kts
2026-05-05 21:56 -2.62287 140.51062 9344 ft 293 kts 359°
2026-05-05 21:56 -2.60234 140.51002 9912 ft 296 kts
2026-05-05 21:56 -2.58200 140.50801 10271 ft 307 kts 340°
2026-05-05 21:56 -2.56394 140.49588 10400 ft 324 kts 309°
2026-05-05 21:57 -2.55331 140.47550 10540 ft 340 kts 287°
2026-05-05 21:57 -2.54771 140.45190 10668 ft 357 kts 281°
2026-05-05 21:57 -2.54307 140.42701 10919 ft 368 kts 281°
2026-05-05 21:57 -2.53808 140.40208 11380 ft 370 kts 282°
2026-05-05 21:58 -2.53224 140.37660 11905 ft 372 kts 284°
2026-05-05 21:58 -2.52585 140.35175 12409 ft 374 kts 285°
2026-05-05 21:58 -2.51884 140.32657 12879 ft 377 kts 286°
2026-05-05 21:58 -2.51145 140.30130 13346 ft 380 kts 287°
2026-05-05 21:59 -2.50381 140.27594 13801 ft 382 kts 287°
2026-05-05 21:59 -2.49597 140.25028 14202 ft 385 kts 287°
2026-05-05 21:59 -2.48804 140.22455 14602 ft 388 kts 287°
2026-05-05 21:59 -2.48014 140.19905 15002 ft 390 kts 287°
2026-05-05 22:00 -2.47211 140.17310 15400 ft 392 kts 287°
2026-05-05 22:00 -2.46400 140.14692 15770 ft 395 kts 287°
2026-05-05 22:00 -2.45582 140.12053 16141 ft 398 kts 287°
2026-05-05 22:00 -2.44758 140.09392 16510 ft 400 kts 287°
2026-05-05 22:01 -2.43929 140.06716 16886 ft 403 kts 287°
2026-05-05 22:01 -2.43098 140.04031 17253 ft 405 kts 288°
2026-05-05 22:01 -2.42270 140.01357 17595 ft 408 kts 287°
2026-05-05 22:01 -2.41426 139.98631 17930 ft 410 kts 288°
2026-05-05 22:02 -2.40577 139.95890 18265 ft 412 kts 288°
2026-05-05 22:02 -2.39726 139.93143 18563 ft 414 kts 288°
2026-05-05 22:02 -2.38869 139.90376 18862 ft 416 kts 288°
2026-05-05 22:02 -2.38023 139.87642 19158 ft 418 kts 288°
2026-05-05 22:03 -2.37157 139.84846 19465 ft 419 kts 287°
2026-05-05 22:03 -2.36292 139.82051 19738 ft 421 kts 287°
2026-05-05 22:03 -2.35421 139.79243 20029 ft 423 kts 287°
2026-05-05 22:03 -2.34548 139.76425 20306 ft 425 kts 287°
2026-05-05 22:04 -2.33683 139.73633 20581 ft 426 kts 287°
2026-05-05 22:04 -2.32804 139.70794 20843 ft 428 kts 287°
2026-05-05 22:04 -2.31920 139.67943 21099 ft 430 kts 287°
2026-05-05 22:04 -2.31031 139.65073 21361 ft 431 kts 287°
2026-05-05 22:05 -2.30139 139.62196 21621 ft 433 kts 287°
2026-05-05 22:05 -2.29245 139.59310 21860 ft 435 kts 287°
2026-05-05 22:05 -2.28357 139.56448 22103 ft 437 kts 287°
2026-05-05 22:05 -2.27457 139.53544 22339 ft 438 kts 287°
2026-05-05 22:06 -2.26553 139.50627 22578 ft 440 kts 287°
2026-05-05 22:06 -2.25646 139.47701 22817 ft 441 kts 287°
2026-05-05 22:06 -2.24734 139.44762 23029 ft 443 kts 287°
2026-05-05 22:06 -2.23819 139.41811 23235 ft 444 kts 287°
2026-05-05 22:07 -2.22899 139.38845 23455 ft 446 kts 287°
2026-05-05 22:07 -2.21990 139.35913 23641 ft 447 kts 287°
2026-05-05 22:07 -2.21064 139.32927 23819 ft 448 kts 287°
2026-05-05 22:07 -2.20148 139.29973 23990 ft 449 kts 287°
2026-05-05 22:08 -2.19221 139.26984 24164 ft 450 kts 287°
2026-05-05 22:08 -2.18291 139.23989 24335 ft 451 kts 287°
2026-05-05 22:08 -2.17358 139.20980 24507 ft 452 kts 287°
2026-05-05 22:08 -2.16427 139.17979 24665 ft 453 kts 287°
2026-05-05 22:09 -2.15490 139.14960 24814 ft 455 kts 287°
2026-05-05 22:09 -2.14558 139.11956 24978 ft 456 kts 287°
2026-05-05 22:09 -2.13617 139.08924 25134 ft 457 kts 287°
2026-05-05 22:09 -2.12672 139.05879 25295 ft 458 kts 287°
2026-05-05 22:10 -2.11727 139.02832 25446 ft 459 kts 287°
2026-05-05 22:10 -2.10778 138.99774 25597 ft 460 kts 287°
2026-05-05 22:10 -2.09828 138.96713 25749 ft 461 kts 287°
2026-05-05 22:10 -2.09065 138.93641 25859 ft 462 kts 276°
2026-05-05 22:11 -2.09158 138.90417 25977 ft 463 kts 261°
2026-05-05 22:11 -2.09701 138.87243 26154 ft 463 kts 260°
2026-05-05 22:11 -2.10284 138.84072 26285 ft 465 kts 259°
2026-05-05 22:11 -2.10879 138.80873 26387 ft 466 kts 259°
2026-05-05 22:12 -2.11462 138.77680 26535 ft 467 kts 260°
2026-05-05 22:12 -2.12035 138.74476 26700 ft 467 kts 260°
2026-05-05 22:12 -2.12588 138.71316 26828 ft 468 kts 260°
2026-05-05 22:12 -2.13145 138.68093 26938 ft 470 kts 260°
2026-05-05 22:13 -2.13699 138.64863 27076 ft 470 kts 260°
2026-05-05 22:13 -2.14245 138.61671 27207 ft 471 kts 260°
2026-05-05 22:13 -2.14799 138.58426 27308 ft 473 kts 260°
2026-05-05 22:13 -2.15354 138.55180 27424 ft 473 kts 260°
2026-05-05 22:14 -2.15910 138.51929 27553 ft 474 kts 260°
2026-05-05 22:14 -2.16459 138.48716 27688 ft 474 kts 260°
2026-05-05 22:14 -2.17018 138.45450 27798 ft 475 kts 260°
2026-05-05 22:14 -2.17578 138.42181 27894 ft 476 kts 260°
2026-05-05 22:15 -2.18139 138.38906 27990 ft 477 kts 260°
2026-05-05 22:15 -2.18694 138.35661 28100 ft 478 kts 260°
2026-05-05 22:15 -2.19256 138.32376 28202 ft 479 kts 260°
2026-05-05 22:15 -2.19820 138.29081 28307 ft 480 kts 260°
2026-05-05 22:16 -2.20381 138.25800 28400 ft 480 kts 260°
2026-05-05 22:16 -2.21321 138.20307 28566 ft 482 kts 260°
2026-05-05 22:16 -2.21885 138.17005 28706 ft 481 kts 260°
2026-05-05 22:17 -2.22443 138.13742 28880 ft 480 kts 260°
2026-05-05 22:17 -2.23012 138.10416 29040 ft 480 kts 260°
2026-05-05 22:17 -2.23574 138.07125 29183 ft 480 kts 260°
2026-05-05 22:17 -2.24320 138.02765 29394 ft 479 kts 260°
2026-05-05 22:18 -2.24692 138.00584 29507 ft 479 kts 260°
2026-05-05 22:18 -2.25256 137.97288 29665 ft 479 kts 260°
2026-05-05 22:18 -2.25817 137.94001 29820 ft 479 kts 260°
2026-05-05 22:18 -2.26378 137.90719 29963 ft 479 kts 260°
2026-05-05 22:19 -2.26932 137.87471 30101 ft 479 kts 260°
2026-05-05 22:19 -2.27495 137.84178 30253 ft 478 kts 260°
2026-05-05 22:19 -2.28056 137.80889 30417 ft 478 kts 260°
2026-05-05 22:19 -2.28610 137.77643 30562 ft 478 kts 260°
2026-05-05 22:20 -2.29170 137.74366 30722 ft 477 kts 260°
2026-05-05 22:20 -2.29730 137.71083 30880 ft 477 kts 260°
2026-05-05 22:20 -2.30288 137.67814 31046 ft 477 kts 261°
2026-05-05 22:20 -2.30839 137.64583 31188 ft 477 kts 261°
2026-05-05 22:21 -2.31398 137.61308 31361 ft 476 kts 261°
2026-05-05 22:21 -2.31955 137.58044 31549 ft 476 kts 261°
2026-05-05 22:21 -2.32512 137.54775 31732 ft 475 kts 261°
2026-05-05 22:21 -2.33070 137.51503 31884 ft 475 kts 261°
2026-05-05 22:22 -2.33619 137.48283 31898 ft 475 kts 261°
2026-05-05 22:22 -2.34732 137.41752 31922 ft 476 kts 261°
2026-05-05 22:23 -2.35848 137.35205 31920 ft 477 kts 261°
2026-05-05 22:23 -2.36957 137.28690 31920 ft 477 kts 261°
2026-05-05 22:24 -2.37957 137.22127 31922 ft 477 kts 263°
2026-05-05 22:24 -2.38638 137.15521 31918 ft 477 kts 265°
2026-05-05 22:25 -2.39263 137.08902 31922 ft 477 kts 265°
2026-05-05 22:25 -2.39917 137.02319 31913 ft 477 kts 264°
2026-05-05 22:26 -2.40596 136.95724 31923 ft 476 kts 264°
2026-05-05 22:26 -2.41278 136.89178 31911 ft 476 kts 264°
2026-05-05 22:27 -2.41965 136.82587 31917 ft 475 kts 264°
2026-05-05 22:27 -2.42650 136.76006 31907 ft 474 kts 264°
2026-05-05 22:28 -2.43327 136.69482 31910 ft 474 kts 264°
2026-05-05 22:28 -2.44009 136.62905 31915 ft 474 kts 264°
2026-05-05 22:29 -2.44687 136.56371 31910 ft 474 kts 264°
2026-05-05 22:29 -2.45367 136.49806 31905 ft 474 kts 264°
2026-05-05 22:30 -2.46049 136.43229 31908 ft 475 kts 264°
2026-05-05 22:30 -2.46726 136.36685 31893 ft 476 kts 264°
2026-05-05 22:31 -2.47410 136.30084 31897 ft 476 kts 264°
2026-05-05 22:31 -2.48089 136.23519 31900 ft 477 kts 264°
2026-05-05 22:32 -2.48774 136.16898 31899 ft 477 kts 264°
2026-05-05 22:32 -2.49457 136.10288 31892 ft 478 kts 264°
2026-05-05 22:33 -2.50138 136.03699 31895 ft 478 kts 264°
2026-05-05 22:33 -2.50820 135.97091 31889 ft 478 kts 264°
2026-05-05 22:34 -2.51504 135.90462 31895 ft 478 kts 264°
2026-05-05 22:34 -2.52188 135.83828 31894 ft 479 kts 264°
2026-05-05 22:35 -2.52868 135.77231 31892 ft 479 kts 264°
2026-05-05 22:35 -2.53552 135.70598 31892 ft 479 kts 264°
2026-05-05 22:36 -2.54232 135.63998 31897 ft 479 kts 264°
2026-05-05 22:36 -2.54914 135.57367 31897 ft 478 kts 264°
2026-05-05 22:37 -2.55597 135.50733 31896 ft 478 kts 264°
2026-05-05 22:37 -2.56276 135.44133 31895 ft 478 kts 264°
2026-05-05 22:38 -2.56953 135.37546 31897 ft 478 kts 264°
2026-05-05 22:38 -2.57635 135.30909 31886 ft 478 kts 264°
2026-05-05 22:39 -2.58316 135.24272 31893 ft 479 kts 264°
2026-05-05 22:39 -2.58994 135.17671 31902 ft 479 kts 264°
2026-05-05 22:40 -2.59675 135.11029 31897 ft 479 kts 264°
2026-05-05 22:40 -2.60351 135.04431 31898 ft 479 kts 264°
2026-05-05 22:41 -2.61032 134.97788 31900 ft 479 kts 264°
2026-05-05 22:41 -2.61713 134.91138 31893 ft 480 kts 264°
2026-05-05 22:42 -2.62390 134.84528 31906 ft 480 kts 264°
2026-05-05 22:42 -2.63071 134.77867 31902 ft 480 kts 264°
2026-05-05 22:43 -2.63748 134.71251 31904 ft 480 kts 264°
2026-05-05 22:43 -2.64430 134.64574 31917 ft 480 kts 264°
2026-05-05 22:44 -2.65106 134.57956 31905 ft 481 kts 264°
2026-05-05 22:44 -2.65788 134.51277 31912 ft 481 kts 264°
2026-05-05 22:45 -2.66465 134.44642 31919 ft 481 kts 264°
2026-05-05 22:45 -2.67144 134.37978 31920 ft 481 kts 264°
2026-05-05 22:46 -2.67823 134.31316 31919 ft 481 kts 264°
2026-05-05 22:46 -2.68499 134.24684 31923 ft 481 kts 264°
2026-05-05 22:47 -2.69177 134.18026 31922 ft 481 kts 264°
2026-05-05 22:47 -2.69855 134.11361 31911 ft 481 kts 264°
2026-05-05 22:48 -2.70528 134.04742 31921 ft 481 kts 264°
2026-05-05 22:48 -2.71205 133.98079 31921 ft 481 kts 264°
2026-05-05 22:49 -2.71882 133.91416 31915 ft 481 kts 264°
2026-05-05 22:49 -2.72553 133.84806 31925 ft 481 kts 264°
2026-05-05 22:50 -2.73230 133.78138 31907 ft 481 kts 264°
2026-05-05 22:50 -2.73906 133.71470 31916 ft 481 kts 264°
2026-05-05 22:51 -2.74582 133.64800 31918 ft 481 kts 264°
2026-05-05 22:51 -2.75254 133.58169 31912 ft 481 kts 264°
2026-05-05 22:52 -2.75930 133.51497 31915 ft 481 kts 264°
2026-05-05 22:52 -2.76601 133.44859 31918 ft 482 kts 264°
2026-05-05 22:53 -2.77277 133.38178 31918 ft 482 kts 264°
2026-05-05 22:53 -2.77951 133.31506 31912 ft 482 kts 264°
2026-05-05 22:54 -2.78626 133.24831 31912 ft 481 kts 264°
2026-05-05 22:54 -2.79296 133.18196 31917 ft 481 kts 264°
2026-05-05 22:55 -2.79970 133.11518 31915 ft 481 kts 264°
2026-05-05 22:55 -2.80637 133.04899 31914 ft 481 kts 264°
2026-05-05 22:56 -2.81309 132.98234 31915 ft 480 kts 264°
2026-05-05 22:56 -2.81980 132.91569 31914 ft 480 kts 264°
2026-05-05 22:57 -2.82646 132.84958 31921 ft 480 kts 264°
2026-05-05 22:57 -2.83316 132.78297 31922 ft 480 kts 264°
2026-05-05 22:58 -2.83980 132.71691 31926 ft 479 kts 264°
2026-05-05 22:58 -2.84648 132.65048 31922 ft 479 kts 264°
2026-05-05 22:59 -2.85315 132.58403 31922 ft 479 kts 264°
2026-05-05 22:59 -2.85978 132.51799 31927 ft 479 kts 264°
2026-05-05 23:00 -2.86978 132.41832 31922 ft 479 kts 264°
2026-05-05 23:00 -2.87643 132.35193 31924 ft 479 kts 264°
2026-05-05 23:01 -2.88304 132.28595 31926 ft 479 kts 264°
2026-05-05 23:01 -2.88969 132.21956 31915 ft 479 kts 264°
2026-05-05 23:02 -2.89632 132.15324 31919 ft 478 kts 264°
2026-05-05 23:02 -2.90184 132.09808 31918 ft 478 kts 264°
2026-05-05 23:03 -2.90953 132.02114 31911 ft 478 kts 264°
2026-05-05 23:03 -2.91508 131.96551 31910 ft 478 kts 264°
2026-05-05 23:04 -2.92165 131.89974 31905 ft 478 kts 264°
2026-05-05 23:04 -2.92825 131.83356 31907 ft 477 kts 264°
2026-05-05 23:05 -2.93485 131.76744 31907 ft 477 kts 264°
2026-05-05 23:05 -2.94139 131.70173 31903 ft 477 kts 264°
2026-05-05 23:06 -2.94799 131.63546 31905 ft 477 kts 264°
2026-05-05 23:06 -2.95457 131.56933 31906 ft 478 kts 264°
2026-05-05 23:07 -2.96112 131.50349 31903 ft 478 kts 264°
2026-05-05 23:07 -2.96768 131.43751 31910 ft 478 kts 264°
2026-05-05 23:08 -2.97428 131.37113 31908 ft 479 kts 264°
2026-05-05 23:08 -2.98086 131.30479 31904 ft 479 kts 264°
2026-05-05 23:09 -2.98742 131.23872 31906 ft 479 kts 264°
2026-05-05 23:09 -2.99401 131.17228 31905 ft 479 kts 264°
2026-05-05 23:10 -3.00059 131.10584 31908 ft 479 kts 264°
2026-05-05 23:10 -3.00717 131.03935 31905 ft 479 kts 264°
2026-05-05 23:11 -3.01371 130.97331 31907 ft 479 kts 264°
2026-05-05 23:11 -3.02028 130.90690 31908 ft 479 kts 264°
2026-05-05 23:12 -3.02684 130.84057 31912 ft 479 kts 264°
2026-05-05 23:12 -3.03336 130.77449 31912 ft 479 kts 264°
2026-05-05 23:13 -3.03992 130.70803 31913 ft 479 kts 264°
2026-05-05 23:13 -3.04648 130.64156 31913 ft 479 kts 264°
2026-05-05 23:14 -3.05302 130.57526 31914 ft 479 kts 264°
2026-05-05 23:14 -3.05951 130.50940 31914 ft 478 kts 264°
2026-05-05 23:15 -3.06604 130.44312 31923 ft 478 kts 264°
2026-05-05 23:15 -3.07257 130.37678 31915 ft 478 kts 264°
2026-05-05 23:16 -3.07908 130.31058 31922 ft 477 kts 264°
2026-05-05 23:16 -3.08554 130.24485 31921 ft 477 kts 264°
2026-05-05 23:17 -3.09204 130.17865 31916 ft 477 kts 264°
2026-05-05 23:17 -3.09849 130.11290 31922 ft 477 kts 264°
2026-05-05 23:18 -3.10497 130.04685 31924 ft 477 kts 264°
2026-05-05 23:18 -3.11145 129.98078 31926 ft 476 kts 264°
2026-05-05 23:19 -3.11789 129.91500 31929 ft 477 kts 264°
2026-05-05 23:19 -3.12437 129.84885 31931 ft 476 kts 264°
2026-05-05 23:20 -3.13088 129.78284 31932 ft 477 kts 263°
2026-05-05 23:20 -3.14227 129.71754 31936 ft 476 kts 258°
2026-05-05 23:21 -3.15562 129.65254 31938 ft 477 kts 258°
2026-05-05 23:21 -3.16880 129.58788 31948 ft 477 kts 258°
2026-05-05 23:22 -3.18173 129.52272 31948 ft 477 kts 258°
2026-05-05 23:22 -3.19455 129.45737 31949 ft 477 kts 258°
2026-05-05 23:23 -3.20721 129.39262 31953 ft 477 kts 258°
2026-05-05 23:23 -3.22000 129.32728 31948 ft 477 kts 258°
2026-05-05 23:24 -3.23277 129.26205 31942 ft 477 kts 258°
2026-05-05 23:24 -3.24546 129.19723 31941 ft 477 kts 258°
2026-05-05 23:25 -3.25822 129.13204 31939 ft 477 kts 258°
2026-05-05 23:25 -3.27097 129.06682 31936 ft 477 kts 258°
2026-05-05 23:26 -3.28375 129.00149 31933 ft 477 kts 258°
2026-05-05 23:26 -3.29644 128.93658 31930 ft 477 kts 258°
2026-05-05 23:27 -3.30921 128.87123 31931 ft 477 kts 258°
2026-05-05 23:27 -3.32185 128.80649 31936 ft 477 kts 258°
2026-05-05 23:28 -3.33460 128.74125 31928 ft 477 kts 258°
2026-05-05 23:28 -3.34734 128.67598 31932 ft 477 kts 258°
2026-05-05 23:29 -3.36005 128.61082 31926 ft 477 kts 258°
2026-05-05 23:29 -3.37279 128.54549 31929 ft 477 kts 258°
2026-05-05 23:30 -3.38543 128.48068 31926 ft 477 kts 258°
2026-05-05 23:30 -3.39816 128.41536 31926 ft 477 kts 258°
2026-05-05 23:31 -3.41086 128.35017 31922 ft 476 kts 258°
2026-05-05 23:31 -3.42355 128.28502 31916 ft 476 kts 258°
2026-05-05 23:32 -3.43616 128.22025 31905 ft 476 kts 258°
2026-05-05 23:32 -3.44885 128.15506 31898 ft 476 kts 258°
2026-05-05 23:33 -3.46142 128.09043 31895 ft 476 kts 258°
2026-05-05 23:33 -3.47411 128.02519 31891 ft 476 kts 258°
2026-05-05 23:34 -3.48680 127.95994 31891 ft 476 kts 258°
2026-05-05 23:34 -3.49938 127.89520 31888 ft 476 kts 258°
2026-05-05 23:35 -3.51206 127.82988 31895 ft 476 kts 258°
2026-05-05 23:35 -3.52465 127.76506 31892 ft 477 kts 258°
2026-05-05 23:36 -3.53733 127.69972 31897 ft 477 kts 258°
2026-05-05 23:36 -3.54993 127.63477 31898 ft 477 kts 258°
2026-05-05 23:37 -3.56260 127.56945 31898 ft 478 kts 258°
2026-05-05 23:37 -3.57523 127.50433 31896 ft 478 kts 258°
2026-05-05 23:38 -3.58793 127.43878 31906 ft 478 kts 258°
2026-05-05 23:38 -3.60054 127.37367 31906 ft 479 kts 258°
2026-05-05 23:39 -3.61322 127.30818 31910 ft 479 kts 258°
2026-05-05 23:39 -3.62591 127.24263 31910 ft 479 kts 258°
2026-05-05 23:40 -3.63852 127.17750 31914 ft 478 kts 259°
2026-05-05 23:40 -3.65119 127.11198 31920 ft 478 kts 259°
2026-05-05 23:41 -3.66384 127.04653 31926 ft 477 kts 258°
2026-05-05 23:41 -3.67642 126.98145 31930 ft 477 kts 258°
2026-05-05 23:42 -3.68899 126.91639 31928 ft 477 kts 258°
2026-05-05 23:42 -3.70160 126.85108 31935 ft 477 kts 258°
2026-05-05 23:43 -3.71423 126.78561 31941 ft 477 kts 258°
2026-05-05 23:43 -3.72674 126.72078 31938 ft 477 kts 259°
2026-05-05 23:44 -3.73934 126.65544 31940 ft 477 kts 258°
2026-05-05 23:44 -3.75191 126.59020 31942 ft 477 kts 258°
2026-05-05 23:45 -3.76348 126.52465 31929 ft 477 kts 263°
2026-05-05 23:45 -3.76908 126.45866 31937 ft 477 kts 266°
2026-05-05 23:46 -3.77346 126.39225 31927 ft 477 kts 266°
2026-05-05 23:46 -3.77815 126.32628 31928 ft 477 kts 265°
2026-05-05 23:47 -3.78326 126.25988 31920 ft 477 kts 265°
2026-05-05 23:47 -3.78845 126.19400 31918 ft 477 kts 265°
2026-05-05 23:48 -3.79368 126.12775 31912 ft 477 kts 265°
2026-05-05 23:48 -3.79889 126.06150 31913 ft 477 kts 265°
2026-05-05 23:49 -3.80321 126.00646 31911 ft 477 kts 265°
2026-05-05 23:49 -3.80839 125.94016 31907 ft 477 kts 265°
2026-05-05 23:50 -3.81443 125.86304 31908 ft 477 kts 265°
2026-05-05 23:50 -3.81874 125.80784 31910 ft 477 kts 265°
2026-05-05 23:51 -3.82389 125.74189 31903 ft 477 kts 265°
2026-05-05 23:51 -3.82906 125.67557 31912 ft 477 kts 265°
2026-05-05 23:52 -3.83421 125.60942 31908 ft 477 kts 265°
2026-05-05 23:52 -3.83937 125.54309 31910 ft 477 kts 265°
2026-05-05 23:53 -3.84451 125.47698 31909 ft 477 kts 265°
2026-05-05 23:53 -3.84967 125.41057 31908 ft 478 kts 265°
2026-05-05 23:54 -3.85483 125.34406 31908 ft 478 kts 265°
2026-05-05 23:54 -3.85996 125.27793 31907 ft 478 kts 265°
2026-05-05 23:55 -3.86507 125.21187 31907 ft 478 kts 265°
2026-05-05 23:55 -3.87021 125.14544 31910 ft 477 kts 265°
2026-05-05 23:56 -3.87534 125.07903 31911 ft 477 kts 265°
2026-05-05 23:56 -3.88044 125.01296 31907 ft 477 kts 265°
2026-05-05 23:57 -3.88556 124.94654 31909 ft 477 kts 265°
2026-05-05 23:57 -3.89067 124.88026 31907 ft 477 kts 265°
2026-05-05 23:58 -3.89574 124.81433 31907 ft 477 kts 265°
2026-05-05 23:58 -3.90083 124.74817 31909 ft 476 kts 265°
2026-05-05 23:59 -3.90592 124.68187 31910 ft 476 kts 265°
2026-05-05 23:59 -3.91097 124.61607 31910 ft 476 kts 265°
2026-05-06 00:00 -3.91605 124.54979 31908 ft 476 kts 265°
2026-05-06 00:00 -3.92108 124.48403 31910 ft 476 kts 265°
2026-05-06 00:01 -3.92615 124.41779 31912 ft 476 kts 265°
2026-05-06 00:01 -3.93121 124.35159 31905 ft 476 kts 265°
2026-05-06 00:02 -3.93623 124.28573 31913 ft 476 kts 265°
2026-05-06 00:02 -3.94128 124.21949 31919 ft 476 kts 265°
2026-05-06 00:03 -3.94630 124.15368 31912 ft 477 kts 265°
2026-05-06 00:03 -3.95135 124.08726 31914 ft 477 kts 265°
2026-05-06 00:04 -3.95637 124.02123 31913 ft 478 kts 265°
2026-05-06 00:04 -3.96142 123.95461 31911 ft 479 kts 265°
2026-05-06 00:05 -3.96898 123.85500 31914 ft 480 kts 265°
2026-05-06 00:06 -3.97404 123.78808 31913 ft 481 kts 265°
2026-05-06 00:06 -3.97908 123.72156 31914 ft 481 kts 265°
2026-05-06 00:07 -3.98413 123.65464 31916 ft 481 kts 265°
2026-05-06 00:07 -3.98919 123.58761 31914 ft 481 kts 265°
2026-05-06 00:08 -3.99420 123.52112 31914 ft 481 kts 265°
2026-05-06 00:08 -3.99923 123.45440 31919 ft 480 kts 265°
2026-05-06 00:09 -4.00425 123.38755 31917 ft 480 kts 265°
2026-05-06 00:09 -4.00925 123.32112 31920 ft 480 kts 265°
2026-05-06 00:10 -4.01426 123.25429 31919 ft 480 kts 265°
2026-05-06 00:10 -4.01927 123.18753 31923 ft 480 kts 265°
2026-05-06 00:11 -4.02629 123.12153 31920 ft 479 kts 259°
2026-05-06 00:11 -4.03901 123.05608 31926 ft 479 kts 257°
2026-05-06 00:12 -4.05245 122.99061 31926 ft 479 kts 258°
2026-05-06 00:12 -4.06542 122.92508 31922 ft 479 kts 258°
2026-05-06 00:13 -4.07794 122.86002 31929 ft 478 kts 258°
2026-05-06 00:13 -4.09050 122.79435 31928 ft 479 kts 258°
2026-05-06 00:14 -4.10296 122.72916 31926 ft 478 kts 258°
2026-05-06 00:14 -4.11552 122.66359 31930 ft 478 kts 258°
2026-05-06 00:15 -4.12805 122.59811 31933 ft 478 kts 258°
2026-05-06 00:15 -4.14051 122.53303 31930 ft 478 kts 258°
2026-05-06 00:16 -4.15304 122.46752 31934 ft 478 kts 258°
2026-05-06 00:16 -4.16557 122.40199 31936 ft 478 kts 258°
2026-05-06 00:17 -4.17806 122.33660 31934 ft 477 kts 258°
2026-05-06 00:17 -4.19049 122.27153 31935 ft 477 kts 258°
2026-05-06 00:18 -4.20301 122.20599 31936 ft 478 kts 258°
2026-05-06 00:18 -4.21542 122.14093 31942 ft 478 kts 258°
2026-05-06 00:19 -4.22792 122.07540 31933 ft 478 kts 258°
2026-05-06 00:19 -4.24039 122.00994 31937 ft 478 kts 258°
2026-05-06 00:20 -4.25278 121.94493 31936 ft 478 kts 258°
2026-05-06 00:20 -4.27601 121.88341 31954 ft 473 kts 233°
2026-05-06 00:21 -4.31613 121.83115 31938 ft 473 kts 230°
2026-05-06 00:21 -4.35696 121.77932 31931 ft 474 kts 231°
2026-05-06 00:22 -4.39709 121.72725 31932 ft 474 kts 231°
2026-05-06 00:22 -4.43718 121.67457 31928 ft 474 kts 231°
2026-05-06 00:23 -4.47720 121.62192 31929 ft 474 kts 231°
2026-05-06 00:23 -4.51698 121.56964 31929 ft 474 kts 231°
2026-05-06 00:24 -4.55700 121.51704 31922 ft 473 kts 231°
2026-05-06 00:24 -4.59679 121.46479 31925 ft 472 kts 231°
2026-05-06 00:25 -4.63670 121.41245 31920 ft 471 kts 231°
2026-05-06 00:25 -4.67652 121.36019 31923 ft 471 kts 231°
2026-05-06 00:26 -4.71597 121.30839 31918 ft 470 kts 231°
2026-05-06 00:26 -4.75563 121.25630 31920 ft 469 kts 231°
2026-05-06 00:27 -4.79522 121.20428 31920 ft 468 kts 231°
2026-05-06 00:27 -4.83471 121.15240 31922 ft 468 kts 231°
2026-05-06 00:28 -4.87400 121.10075 31923 ft 467 kts 231°
2026-05-06 00:28 -4.91306 121.04937 31913 ft 456 kts 231°
2026-05-06 00:29 -4.95117 120.99927 31917 ft 452 kts 231°
2026-05-06 00:29 -4.97029 120.97413 31760 ft 454 kts 231°
2026-05-06 00:29 -4.98951 120.94887 31312 ft 454 kts 231°
2026-05-06 00:29 -5.00857 120.92378 30812 ft 450 kts 231°
2026-05-06 00:30 -5.02753 120.89883 30324 ft 447 kts 231°
2026-05-06 00:30 -5.04635 120.87407 29765 ft 444 kts 231°
2026-05-06 00:30 -5.06508 120.84942 29199 ft 441 kts 231°
2026-05-06 00:30 -5.08356 120.82510 28670 ft 437 kts 231°
2026-05-06 00:31 -5.10170 120.80121 28146 ft 433 kts 231°
2026-05-06 00:31 -5.11989 120.77727 27649 ft 430 kts 231°
2026-05-06 00:31 -5.13798 120.75346 27151 ft 426 kts 231°
2026-05-06 00:31 -5.15378 120.72841 26625 ft 426 kts 246°
2026-05-06 00:32 -5.16167 120.69983 26161 ft 424 kts 264°
2026-05-06 00:32 -5.16320 120.67039 25691 ft 422 kts 268°
2026-05-06 00:32 -5.16381 120.64083 25182 ft 421 kts 269°
2026-05-06 00:32 -5.16429 120.61148 24686 ft 420 kts 269°
2026-05-06 00:33 -5.16488 120.58266 24208 ft 418 kts 268°
2026-05-06 00:33 -5.16563 120.55345 23719 ft 418 kts 268°
2026-05-06 00:33 -5.16651 120.52435 23170 ft 417 kts 268°
2026-05-06 00:33 -5.16744 120.49532 22649 ft 414 kts 268°
2026-05-06 00:34 -5.16838 120.46653 22159 ft 412 kts 268°
2026-05-06 00:34 -5.16932 120.43787 21681 ft 409 kts 268°
2026-05-06 00:34 -5.17025 120.40943 21204 ft 406 kts 268°
2026-05-06 00:34 -5.17115 120.38155 20737 ft 404 kts 268°
2026-05-06 00:35 -5.17205 120.35347 20277 ft 401 kts 268°
2026-05-06 00:35 -5.17295 120.32554 19798 ft 399 kts 268°
2026-05-06 00:35 -5.17385 120.29779 19335 ft 397 kts 268°
2026-05-06 00:35 -5.17474 120.27013 18867 ft 395 kts 268°
2026-05-06 00:36 -5.17532 120.25188 18562 ft 394 kts 268°
2026-05-06 00:36 -5.17650 120.21522 17895 ft 392 kts 268°
2026-05-06 00:36 -5.17736 120.18822 17415 ft 389 kts 268°
2026-05-06 00:36 -5.17823 120.16119 16939 ft 386 kts 268°
2026-05-06 00:37 -5.17908 120.13436 16486 ft 383 kts 268°
2026-05-06 00:37 -5.17965 120.11662 16187 ft 382 kts 268°
2026-05-06 00:37 -5.18049 120.09004 15733 ft 380 kts 268°
2026-05-06 00:37 -5.18133 120.06362 15290 ft 378 kts 268°
2026-05-06 00:38 -5.18217 120.03731 14840 ft 376 kts 268°
2026-05-06 00:38 -5.18303 120.01119 14405 ft 374 kts 268°
2026-05-06 00:38 -5.18390 119.98518 13955 ft 373 kts 267°
2026-05-06 00:38 -5.18476 119.95916 13481 ft 371 kts 267°
2026-05-06 00:39 -5.18562 119.93339 13033 ft 368 kts 267°
2026-05-06 00:39 -5.18646 119.90804 12590 ft 366 kts 267°
2026-05-06 00:39 -5.18730 119.88253 12159 ft 364 kts 268°
2026-05-06 00:39 -5.18813 119.85723 11726 ft 361 kts 268°
2026-05-06 00:40 -5.18901 119.83203 11305 ft 358 kts 265°
2026-05-06 00:40 -5.19469 119.80805 10922 ft 351 kts 244°
2026-05-06 00:40 -5.20779 119.78777 10636 ft 343 kts 228°
2026-05-06 00:40 -5.22359 119.77019 10391 ft 336 kts 226°
2026-05-06 00:41 -5.23947 119.75316 10133 ft 330 kts 225°
2026-05-06 00:41 -5.25483 119.73671 9913 ft 323 kts 226°
2026-05-06 00:41 -5.26974 119.72061 9920 ft 308 kts 226°
2026-05-06 00:41 -5.28397 119.70511 9879 ft 295 kts 226°
2026-05-06 00:42 -5.29762 119.69017 9526 ft 288 kts 226°
2026-05-06 00:42 -5.31113 119.67535 9037 ft 287 kts 226°
2026-05-06 00:42 -5.32466 119.66048 8530 ft 287 kts 225°
2026-05-06 00:42 -5.33814 119.64565 8088 ft 285 kts 225°
2026-05-06 00:43 -5.35127 119.63121 7694 ft 282 kts 225°
2026-05-06 00:43 -5.36434 119.61679 7390 ft 275 kts 227°
2026-05-06 00:43 -5.37367 119.60029 7064 ft 273 kts 255°
2026-05-06 00:43 -5.37427 119.58155 6781 ft 270 kts 283°
2026-05-06 00:44 -5.36747 119.56367 6494 ft 280 kts 299°
2026-05-06 00:44 -5.35789 119.54631 6123 ft 288 kts 301°
2026-05-06 00:44 -5.34796 119.52874 5778 ft 290 kts 301°
2026-05-06 00:44 -5.33813 119.51109 5430 ft 290 kts 300°
2026-05-06 00:45 -5.32850 119.49356 5091 ft 290 kts 300°
2026-05-06 00:45 -5.31878 119.47578 4751 ft 291 kts 300°
2026-05-06 00:45 -5.30790 119.45871 4371 ft 289 kts 316°
2026-05-06 00:45 -5.29169 119.44798 4069 ft 272 kts 344°
2026-05-06 00:46 -5.27368 119.44556 3743 ft 254 kts
2026-05-06 00:46 -5.25700 119.44932 3434 ft 238 kts 26°
2026-05-06 00:46 -5.24277 119.45694 3179 ft 226 kts 31°
2026-05-06 00:46 -5.22959 119.46464 2937 ft 218 kts 32°
2026-05-06 00:47 -5.21659 119.47203 2728 ft 209 kts 30°
2026-05-06 00:47 -5.20412 119.47913 2471 ft 202 kts 31°
2026-05-06 00:47 -5.19217 119.48604 2216 ft 193 kts 31°
2026-05-06 00:47 -5.18097 119.49255 1991 ft 179 kts 30°
2026-05-06 00:48 -5.17052 119.49862 1758 ft 166 kts 30°
2026-05-06 00:48 -5.16066 119.50434 1562 ft 164 kts 30°
2026-05-06 00:48 -5.15105 119.50992 1355 ft 160 kts 30°
2026-05-06 00:48 -5.14130 119.51558 1168 ft 160 kts 30°
2026-05-06 00:49 -5.13171 119.52115 967 ft 161 kts 30°
2026-05-06 00:49 -5.12347 119.52593 795 ft 161 kts 30°
2026-05-06 00:49 -5.12154 119.52705 750 ft 161 kts 30°
2026-05-06 00:49 -5.11184 119.53268 534 ft 160 kts 30°
2026-05-06 00:50 -5.10228 119.53836 316 ft 159 kts 30°
2026-05-06 00:50 -5.09268 119.54384 97 ft 158 kts 30°
2026-05-06 00:50 -5.08359 119.54902 39 ft 138 kts 30°
2026-05-06 00:50 -5.07684 119.55294 41 ft 81 kts 30°
2026-05-06 00:51 -5.07406 119.55420 38 ft 34 kts
2026-05-06 00:51 -5.07263 119.55428 39 ft 14 kts 12°
2026-05-06 00:55 -5.07245 119.55433 39 ft 10 kts 14°
2026-05-06 00:55 -5.07212 119.55412 39 ft 6 kts 303°
2026-05-06 00:56 -5.07205 119.55396 40 ft 4 kts 289°
2026-05-06 00:56 -5.07204 119.55395 40 ft 4 kts 289°
2026-05-06 00:57 -5.07201 119.55385 40 ft 0 kts 289°
2026-05-06 00:57 -5.07203 119.55380 40 ft 3 kts 251°
2026-05-06 00:57 -5.07229 119.55352 39 ft 8 kts 211°
2026-05-06 00:58 -5.07277 119.55325 40 ft 8 kts 208°
2026-05-06 00:58 -5.07324 119.55298 40 ft 8 kts 210°
2026-05-06 00:58 -5.07370 119.55272 40 ft 7 kts 210°
2026-05-06 00:58 -5.07414 119.55247 40 ft 7 kts 210°
2026-05-06 00:59 -5.07456 119.55223 40 ft 7 kts 210°
2026-05-06 00:59 -5.07502 119.55196 40 ft 9 kts 210°
2026-05-06 00:59 -5.07576 119.55153 40 ft 15 kts 210°
2026-05-06 00:59 -5.07672 119.55098 40 ft 16 kts 210°
2026-05-06 01:00 -5.07768 119.55043 40 ft 15 kts 210°
2026-05-06 01:00 -5.07858 119.54990 40 ft 15 kts 210°
2026-05-06 01:00 -5.07945 119.54941 40 ft 14 kts 210°
2026-05-06 01:00 -5.08028 119.54893 40 ft 13 kts 211°
2026-05-06 01:01 -5.08053 119.54825 40 ft 10 kts 286°
2026-05-06 01:01 -5.08022 119.54762 40 ft 10 kts 285°
2026-05-06 01:01 -5.08047 119.54705 40 ft 9 kts 215°
2026-05-06 01:01 -5.08102 119.54671 40 ft 9 kts 210°
2026-05-06 01:02 -5.08146 119.54647 40 ft 4 kts 196°
2026-05-06 01:02 -5.08166 119.54660 40 ft 4 kts 131°
2026-05-06 01:02 -5.08181 119.54682 40 ft 4 kts 120°
2026-05-06 01:02 -5.08186 119.54692 40 ft 1 kts 120°
2026-05-06 01:03 -5.08188 119.54695 40 ft 1 kts 120°
2026-05-06 01:03 -5.08190 119.54698 40 ft 0 kts 120°
2026-05-06 01:03 -5.08192 119.54701 40 ft 0 kts 120°